Date String (YYYY-MM-DD hh:mm:ss) UTC,Instrument flags,Ambient pressure (hPa),Sample flow (lpm),Bypass flow (lpm),Sample temperature (°C),Ambient temperature (°C),ASC tube jacket temperature (°C),LED temperature (°C),Box temperature (°C),Sample RH (%),Span deviation,Mass concentration (μg/m³),Mass concentration (μg/m³),Mass concentration (μg/m³)
DateTimeUTC,F1_M11,P_M11,Q1_M11,Q2_M11,T1_M11,T2_M11,T3_M11,T4_M11,T5_M11,U1_M11,ZSPAN_M11,X0_M11,X2_M11,X1_M11
2022-01-05 06:00:00,,0824.4,4.99,0.00,22.0,21.6,00.0,31.2,23.6,11.4,0000.0,0002.72,0001.42,0001.04
2022-01-05 06:01:00,,0824.7,5.00,0.00,22.1,22.4,00.0,31.2,23.9,11.3,0000.0,0002.67,0001.40,0001.04
2022-01-05 06:02:00,,0824.6,5.00,0.00,22.3,23.0,00.0,31.3,24.2,11.3,0000.0,0003.01,0001.40,0001.05
2022-01-05 06:03:00,,0824.8,4.99,0.00,22.4,22.8,00.0,31.3,24.2,11.2,0000.0,0004.48,0001.43,0001.05
2022-01-05 06:04:00,,0824.6,5.01,0.00,22.3,22.3,00.0,31.3,24.0,11.3,0000.0,0005.20,0001.47,0001.05
2022-01-05 06:05:00,,0824.5,4.99,0.00,22.3,22.0,00.0,31.3,23.9,11.4,0000.0,0005.05,0001.50,0001.05
2022-01-05 06:06:00,,0824.4,5.01,0.00,22.2,21.7,00.0,31.3,23.7,11.4,0000.0,0005.44,0001.51,0001.05
2022-01-05 06:07:00,,0824.5,4.99,0.00,22.1,21.4,00.0,31.2,23.6,11.5,0000.0,0005.61,0001.53,0001.06
2022-01-05 06:08:00,,0824.6,5.00,0.00,22.0,21.2,00.0,31.2,23.5,11.5,0000.0,0005.71,0001.56,0001.06
2022-01-05 06:09:00,,0824.4,5.01,0.00,22.0,21.0,00.0,31.2,23.4,11.5,0000.0,0005.61,0001.54,0001.07
2022-01-05 06:10:00,,0824.7,4.98,0.00,21.9,20.9,00.0,31.1,23.3,11.5,0000.0,0006.30,0001.49,0001.08
2022-01-05 06:11:00,,0824.6,5.00,0.00,21.9,20.8,00.0,31.1,23.3,11.6,0000.0,0006.94,0001.47,0001.08
2022-01-05 06:12:00,,0824.4,5.01,0.00,21.8,20.8,00.0,31.1,23.3,11.6,0000.0,0007.00,0001.47,0001.07
2022-01-05 06:13:00,,0824.5,5.00,0.00,21.8,20.8,00.0,31.0,23.3,11.6,0000.0,0007.01,0001.47,0001.07
2022-01-05 06:14:00,,0824.5,5.01,0.00,21.8,20.8,00.0,31.0,23.3,11.6,0000.0,0006.64,0001.46,0001.07
2022-01-05 06:15:00,,0824.4,4.99,0.00,21.8,20.8,00.0,31.0,23.3,11.7,0000.0,0005.55,0001.43,0001.07
2022-01-05 06:16:00,,0824.6,5.01,0.00,21.7,20.8,00.0,31.0,23.3,11.7,0000.0,0005.58,0001.42,0001.07
2022-01-05 06:17:00,,0824.6,5.00,0.00,21.7,20.9,00.0,30.9,23.3,11.7,0000.0,0006.94,0001.42,0001.07
2022-01-05 06:18:00,,0824.4,4.99,0.00,21.7,20.8,00.0,30.9,23.2,11.7,0000.0,0007.57,0001.41,0001.08
2022-01-05 06:19:00,,0824.4,5.01,0.00,21.7,20.7,00.0,30.9,23.2,11.6,0000.0,0007.58,0001.41,0001.08
2022-01-05 06:20:00,,0824.4,4.99,0.00,21.6,20.7,00.0,30.9,23.2,11.7,0000.0,0007.56,0001.38,0001.06
2022-01-05 06:21:00,,0824.5,5.00,0.00,21.6,20.7,00.0,30.8,23.2,11.7,0000.0,0006.91,0001.37,0001.06
2022-01-05 06:22:00,,0824.4,4.99,0.00,21.6,21.0,00.0,30.8,23.2,11.6,0000.0,0005.99,0001.36,0001.07
2022-01-05 06:23:00,,0824.5,5.01,0.00,21.7,21.8,00.0,30.8,23.5,11.6,0000.0,0006.75,0001.41,0001.09
2022-01-05 06:24:00,,0824.4,4.99,0.00,21.9,22.6,00.0,30.9,23.8,11.4,0000.0,0006.87,0001.47,0001.10
2022-01-05 06:25:00,,0824.4,5.02,0.00,22.0,22.8,00.0,30.9,24.0,11.3,0000.0,0006.01,0001.48,0001.10
2022-01-05 06:26:00,,0824.4,5.00,0.00,22.1,22.5,00.0,30.9,24.0,11.2,0000.0,0006.08,0001.53,0001.12
2022-01-05 06:27:00,,0824.7,5.00,0.00,22.1,22.3,00.0,31.0,23.9,11.2,0000.0,0006.01,0001.54,0001.13
2022-01-05 06:28:00,,0824.5,4.99,0.00,22.1,22.1,00.0,31.0,23.8,11.2,0000.0,0004.34,0001.55,0001.15
2022-01-05 06:29:00,,0824.6,5.01,0.00,22.1,21.8,00.0,31.0,23.7,11.2,0000.0,0003.45,0001.55,0001.15
2022-01-05 06:30:00,,0824.5,5.01,0.00,22.0,21.6,00.0,31.0,23.7,11.3,0000.0,0003.40,0001.55,0001.16
2022-01-05 06:31:00,,0825.0,4.99,0.00,22.0,21.5,00.0,31.0,23.6,11.3,0000.0,0003.42,0001.55,0001.18
2022-01-05 06:32:00,,0824.7,5.01,0.00,22.0,21.4,00.0,31.0,23.6,11.4,0000.0,0003.48,0001.57,0001.18
2022-01-05 06:33:00,,0824.8,4.99,0.00,22.0,21.3,00.0,31.0,23.5,11.4,0000.0,0003.51,0001.60,0001.19
2022-01-05 06:34:00,,0824.6,4.99,0.00,21.9,21.2,00.0,30.9,23.5,11.5,0000.0,0002.99,0001.63,0001.20
2022-01-05 06:35:00,,0824.9,5.01,0.00,21.9,21.2,00.0,30.9,23.4,11.5,0000.0,0002.73,0001.59,0001.20
2022-01-05 06:36:00,,0824.6,5.00,0.00,21.9,21.2,00.0,30.9,23.5,11.5,0000.0,0002.74,0001.60,0001.22
2022-01-05 06:37:00,,0824.7,4.99,0.00,21.9,21.2,00.0,30.9,23.5,11.5,0000.0,0002.67,0001.59,0001.23
2022-01-05 06:38:00,,0824.6,5.00,0.00,21.9,21.2,00.0,30.9,23.5,11.5,0000.0,0002.77,0001.62,0001.24
2022-01-05 06:39:00,,0824.6,5.00,0.00,21.9,21.2,00.0,30.9,23.5,11.5,0000.0,0002.74,0001.63,0001.24
2022-01-05 06:40:00,,0824.8,5.00,0.00,21.9,21.2,00.0,30.9,23.5,11.5,0000.0,0002.54,0001.61,0001.23
2022-01-05 06:41:00,,0824.5,4.98,0.00,21.9,21.2,00.0,30.9,23.5,11.5,0000.0,0002.52,0001.58,0001.22
2022-01-05 06:42:00,,0824.7,5.01,0.00,21.9,21.2,00.0,30.9,23.5,11.5,0000.0,0002.49,0001.58,0001.21
2022-01-05 06:43:00,,0824.7,4.99,0.00,21.9,21.2,00.0,30.9,23.5,11.5,0000.0,0002.49,0001.60,0001.20
2022-01-05 06:44:00,,0824.6,5.01,0.00,21.9,21.2,00.0,30.9,23.5,11.5,0000.0,0002.47,0001.59,0001.20
2022-01-05 06:45:00,,0824.6,4.99,0.00,21.9,21.2,00.0,30.9,23.5,11.5,0000.0,0002.42,0001.56,0001.19
2022-01-05 06:46:00,,0824.7,5.00,0.00,21.9,21.2,00.0,30.9,23.5,11.6,0000.0,0002.31,0001.53,0001.18
2022-01-05 06:47:00,,0824.9,5.00,0.00,21.9,21.6,00.0,30.9,23.7,11.5,0000.0,0002.26,0001.51,0001.17
2022-01-05 06:48:00,,0824.9,5.01,0.00,22.0,22.4,00.0,30.9,24.0,11.4,0000.0,0002.22,0001.48,0001.15
2022-01-05 06:49:00,,0824.9,4.99,0.00,22.2,23.0,00.0,31.0,24.2,11.3,0000.0,0002.28,0001.45,0001.14
2022-01-05 06:50:00,,0824.8,5.00,0.00,22.3,22.9,00.0,31.0,24.2,11.2,0000.0,0002.48,0001.48,0001.14
2022-01-05 06:51:00,,0824.7,5.00,0.00,22.3,22.6,00.0,31.0,24.2,11.1,0000.0,0002.69,0001.49,0001.14
2022-01-05 06:52:00,,0824.8,5.01,0.00,22.3,22.5,00.0,31.1,24.1,11.1,0000.0,0002.79,0001.51,0001.13
2022-01-05 06:53:00,,0824.8,5.00,0.00,22.3,22.3,00.0,31.1,24.1,11.0,0000.0,0002.79,0001.52,0001.14
2022-01-05 06:54:00,,0824.6,5.00,0.00,22.3,22.2,00.0,31.1,24.0,11.1,0000.0,0002.74,0001.51,0001.14
2022-01-05 06:55:00,,0824.7,5.01,0.00,22.3,22.0,00.0,31.1,24.0,11.0,0000.0,0002.75,0001.52,0001.14
2022-01-05 06:56:00,,0824.7,4.99,0.00,22.2,21.9,00.0,31.1,23.9,10.9,0000.0,0003.45,0001.54,0001.14
2022-01-05 06:57:00,,0824.5,5.01,0.00,22.2,21.8,00.0,31.1,23.9,10.9,0000.0,0004.25,0001.55,0001.14
2022-01-05 06:58:00,,0824.4,5.00,0.00,22.2,21.6,00.0,31.1,23.8,10.9,0000.0,0004.33,0001.57,0001.14
2022-01-05 06:59:00,,0824.7,4.99,0.00,22.2,21.6,00.0,31.1,23.8,10.9,0000.0,0004.31,0001.56,0001.13
